Allentown, PA

3:29 PM EST on February 24, 2018 (GMT -0500)
Lehigh Valley International

Weather History for KABE - May, 2013

Change the Weather History Date:

Tuesday, May 7, 2013

  Actual Average Record
Temperature  
Mean Temperature 62 °F 57 °F  
Max Temperature 75 °F 69 °F 94 °F (1939)
Min Temperature 49 °F 45 °F 32 °F (1970)
Degree Days  
Heating Degree Days 3 8  
Month to date heating degree days 60 65  
Since 1 July heating degree days 5269 5635  
Cooling Degree Days 0 1  
Month to date cooling degree days 0 1  
Year to date cooling degree days 8 6  
Growing Degree Days 12 (Base 50)    
Moisture  
Dew Point 52 °F    
Average Humidity 71    
Maximum Humidity 96    
Minimum Humidity 46    
Precipitation  
Precipitation 0.02 in 0.13 in 1.70 in (1942)
Month to date precipitation 0.02 0.86  
Year to date precipitation 11.30 13.54  
Snow  
Snow 0.00 in 0.00 in 0.00 in ()
Month to date snowfall 0.0 0.0  
Since 1 July snowfall 21.4 32.9  
Snow Depth 0.00 in    
Sea Level Pressure  
Sea Level Pressure 30.11 in    
Wind  
Wind Speed 10 mph (East)    
Max Wind Speed 17 mph    
Max Gust Speed 23 mph    
Visibility 10 miles    
Events Rain    
T = Trace of Precipitation, MM = Missing Value Source: NWS Daily Summary

Daily Weather History Graph

Daily Weather History Graph

Search for Another Location

Airport or City:

Trip Planner

Search our weather history database for the weather conditions in past years. The results will help you decide how hot, cold, wet, or windy it might be!

Date:

Astronomy

May. 07, 2013 Rise Set
Actual Time 5:52 AM EDT 8:04 PM EDT
Civil Twilight 5:22 AM EDT 8:34 PM EDT
Nautical Twilight 4:45 AM EDT 9:11 PM EDT
Astronomical Twilight 4:04 AM EDT 9:52 PM EDT
Moon 4:26 AM EDT (5/7) 6:01 PM EDT (5/7)
Length of Visible Light 15h 11m
Length of Day
14h 11m
Waning Crescent, 5% of the Moon is Illuminated
May 7
Waning Crescent
May 9
New
May 18
First Quarter
May 25
Full
May 31
Last Quarter

Hourly Weather History & Observations

Time (EDT) Temp. Dew Point Humidity Pressure Visibility Wind Dir Wind Speed Gust Speed Precip Events Conditions
12:51 AM 55.0 °F 48.9 °F 80% 30.15 in 10.0 mi East 3.5 mph - N/A   Clear
1:51 AM 52.0 °F 48.0 °F 86% 30.14 in 10.0 mi East 4.6 mph - N/A   Clear
2:51 AM 50.0 °F 48.0 °F 93% 30.13 in 10.0 mi ENE 3.5 mph - N/A   Mostly Cloudy
3:25 AM 53.6 °F 50.0 °F 88% 30.12 in 10.0 mi ENE 6.9 mph - N/A   Overcast
3:51 AM 53.1 °F 50.0 °F 89% 30.12 in 10.0 mi ENE 5.8 mph - N/A   Overcast
4:51 AM 53.1 °F 50.0 °F 89% 30.12 in 10.0 mi East 8.1 mph - N/A   Overcast
5:11 AM 53.6 °F 50.0 °F 88% 30.12 in 10.0 mi East 8.1 mph - N/A   Overcast
5:51 AM 52.0 °F 50.0 °F 93% 30.12 in 10.0 mi East 6.9 mph - N/A   Scattered Clouds
6:28 AM 51.8 °F 48.2 °F 88% 30.13 in 10.0 mi ENE 5.8 mph - N/A   Mostly Cloudy
6:49 AM 51.8 °F 48.2 °F 88% 30.13 in 10.0 mi NE 5.8 mph - N/A   Clear
6:51 AM 52.0 °F 48.9 °F 89% 30.13 in 10.0 mi NE 5.8 mph - N/A   Clear
7:51 AM 55.0 °F 48.9 °F 80% 30.14 in 10.0 mi ENE 5.8 mph - N/A   Clear
8:51 AM 59.0 °F 46.9 °F 64% 30.14 in 10.0 mi East 10.4 mph - N/A   Clear
9:51 AM 64.0 °F 48.9 °F 58% 30.14 in 10.0 mi ENE 10.4 mph - N/A   Clear
10:51 AM 68.0 °F 50.0 °F 52% 30.13 in 10.0 mi ENE 11.5 mph - N/A   Clear
11:51 AM 71.6 °F 53.6 °F 53% 30.12 in 10.0 mi East 12.7 mph 18.4 mph N/A   Partly Cloudy
12:51 PM 71.1 °F 54.0 °F 55% 30.11 in 10.0 mi ESE 12.7 mph 18.4 mph N/A   Mostly Cloudy
1:51 PM 73.0 °F 54.0 °F 51% 30.09 in 10.0 mi East 16.1 mph 21.9 mph N/A   Partly Cloudy
2:51 PM 75.0 °F 54.0 °F 48% 30.07 in 10.0 mi ESE 12.7 mph - N/A   Partly Cloudy
3:51 PM 73.9 °F 54.0 °F 50% 30.05 in 10.0 mi ESE 12.7 mph - N/A   Mostly Cloudy
4:51 PM 69.1 °F 54.0 °F 58% 30.07 in 10.0 mi ESE 15.0 mph - N/A   Overcast
5:51 PM 69.1 °F 57.0 °F 65% 30.06 in 10.0 mi East 10.4 mph - N/A   Mostly Cloudy
6:46 PM 69.8 °F 57.2 °F 64% 30.06 in 10.0 mi East 11.5 mph - N/A   Mostly Cloudy
6:51 PM 69.1 °F 57.0 °F 65% 30.06 in 10.0 mi East 10.4 mph - N/A   Mostly Cloudy
7:27 PM 68.0 °F 55.4 °F 64% 30.07 in 10.0 mi East 12.7 mph - N/A   Scattered Clouds
7:51 PM 66.9 °F 55.0 °F 66% 30.07 in 10.0 mi ESE 11.5 mph - N/A   Scattered Clouds
8:51 PM 66.0 °F 55.9 °F 70% 30.08 in 10.0 mi ESE 10.4 mph - N/A   Partly Cloudy
9:51 PM 64.9 °F 55.9 °F 73% 30.09 in 10.0 mi East 10.4 mph - N/A   Overcast
10:51 PM 64.0 °F 57.0 °F 78% 30.08 in 10.0 mi East 9.2 mph - N/A   Overcast
11:51 PM 62.1 °F 57.9 °F 86% 30.08 in 10.0 mi East 5.8 mph - 0.02 in Rain Light Rain